[[{"header":{"parameterUnit":"m.s-1","parameterCategory":1,"la1":30.2991,"la2":30.254,"lo1":-89.0895,"lo2":-89.0444,"dy":0.0017,"dx":0.0017,"nx":28,"ny":28,"refTime":"2024-10-04T03:00:00:Z","depth":0,"parameterNumber":2,"parameterNumberName":"U-component_of_WINDS"},"data":[0,0,0,0,0,0,0,0,0,0,0,0,0,0,0,0,0,0,0,0,0,0,0,0,0,0,0,0,0,0,0,0,0,0,0,0,0,0,0,0,0,0,0,0,0,0,0,0,0,0,0,0,0,0,0,0,0,0,-4.216,-4.216,0,-4.2131,-4.213,-4.213,-4.2017,-4.2015,-4.2012,-4.201,-4.1983,-4.1985,-4.1986,0,0,0,0,0,0,0,0,0,0,0,0,0,-4.2124,-4.2126,-4.216,-4.216,-4.2159,-4.2131,-4.213,-4.213,-4.2018,-4.2015,-4.2012,-4.2009,-4.1982,-4.1984,-4.1986,0,0,0,0,0,0,0,0,0,0,0,0,0,-4.2122,-4.2126,-4.216,-4.21,-4.2094,-4.2131,-4.213,-4.213,-4.2018,-4.2015,-4.2011,-4.2007,-4.1982,-4.1984,-4.1987,-4.208,0,0,-4.1994,-4.1995,0,0,0,0,0,0,0,0,-4.2122,-4.2123,-4.2109,-4.2104,-4.2098,-4.2074,-4.2108,-4.2113,-4.2019,-4.2047,-4.201,-4.2005,-4.2016,-4.2016,-4.2019,-4.2079,-4.2077,-4.1995,-4.1996,-4.1997,-4.1998,0,0,0,0,0,0,0,-4.2123,-4.2124,-4.2148,-4.2109,-4.2102,-4.2076,-4.2071,-4.2108,-4.2054,-4.2045,-4.2036,-4.2034,-4.2013,-4.2017,-4.2017,-4.2077,-4.1995,-4.1997,-4.1998,-4.1999,-4.2215,-4.2219,0,0,0,0,0,0,-4.2131,-4.2125,-4.2149,-4.2148,-4.2101,-4.208,-4.2075,-4.2085,-4.2053,-4.2045,-4.2038,-4.2029,-4.2014,-4.2015,-4.2016,-4.2125,-4.1997,-4.2,-4.2001,-4.2211,-4.2216,-4.222,0,0,0,0,0,0,-4.213,-4.2134,-4.2151,-4.2134,-4.2134,-4.2084,-4.2098,-4.2087,-4.2091,-4.2048,-4.2038,-4.2052,-4.2011,-4.2013,-4.2065,-4.2123,-4.2001,-4.2003,-4.2206,-4.2212,-4.2218,-4.2343,0,0,0,0,0,0,-4.213,-4.2135,-4.2168,-4.2136,-4.2135,-4.2199,-4.2101,-4.2089,-4.2095,-4.2084,-4.2058,-4.2051,-4.2008,-4.2062,-4.2068,-4.2124,-4.2005,-4.2201,-4.2209,-4.2216,-4.2334,-4.2353,-4.237,0,0,0,0,0,-4.2129,-4.2205,-4.217,-4.2174,-4.2176,-4.2203,-4.2203,-4.2152,-4.21,-4.2135,-4.2108,-4.2051,-4.2115,-4.2068,-4.2074,-4.2132,-4.2197,-4.2206,-4.2216,-4.2326,-4.2349,-4.2369,0,0,0,0,0,0,-4.2246,-4.2199,-4.2161,-4.2228,-4.222,-4.2184,-4.2225,-4.2178,-4.2185,-4.2174,-4.2112,-4.2107,-4.217,-4.2155,-4.2104,-4.2222,-4.2147,-4.2158,-4.2229,-4.2251,-4.2268,-4.2271,-4.2007,0,0,0,0,0,-4.2279,-4.2303,-4.2262,-4.2325,-4.2323,-4.2275,-4.2285,-4.2246,-4.2236,-4.2233,-4.2209,-4.2203,-4.2221,-4.2235,-4.225,-4.2331,-4.2326,-4.2374,-4.2392,-4.2407,-4.2417,-4.2463,-4.2484,-4.2252,-4.2252,-4.2251,0,0,-4.2349,-4.2326,-4.2345,-4.2348,-4.2337,-4.2366,-4.2273,-4.2306,-4.2327,-4.2238,-4.2286,-4.227,-4.2258,-4.2327,-4.2356,-4.2317,-4.2481,-4.2419,-4.2431,-4.2433,-4.2475,-4.2497,-4.2516,-4.2258,-4.2257,-4.2256,0,0,-4.249,-4.2475,-4.2527,-4.2518,-4.2504,-4.2472,-4.2485,-4.2456,-4.2441,-4.2489,-4.2423,-4.2448,-4.2481,-4.2476,-4.2478,-4.2621,-4.2571,-4.2628,-4.2722,-4.2766,-4.2785,-4.2801,-4.2854,-4.2874,-4.2638,-4.2639,-4.2639,0,-4.2579,-4.2617,-4.256,-4.2598,-4.2602,-4.2522,-4.2576,-4.2571,-4.2563,-4.2569,-4.2525,-4.2566,-4.2553,-4.2621,-4.2656,-4.2659,-4.2674,-4.2631,-4.2786,-4.2802,-4.2816,-4.2866,-4.2886,-4.2646,-4.2645,-4.2644,-4.2644,0,-4.2728,-4.2756,-4.28,-4.2794,-4.2803,-4.2849,-4.2801,-4.2817,-4.2779,-4.2752,-4.2804,-4.2785,-4.2796,-4.2809,-4.2771,-4.2872,-4.2849,-4.2797,-4.2721,-4.2846,-4.2893,-4.2911,-4.2656,-4.2653,-4.2651,-4.265,0,0,-4.2942,-4.2904,-4.2922,-4.2919,-4.2898,-4.2919,-4.2963,-4.2973,-4.299,-4.2987,-4.3024,-4.3054,-4.3007,-4.3009,-4.2971,-4.301,-4.3128,-4.2953,-4.2952,-4.2988,-4.3241,-4.3282,-4.3305,-4.3094,-4.3097,-4.31,-4.3243,0,-4.3078,-4.3149,-4.31,-4.318,-4.3207,-4.3133,-4.3171,-4.3163,-4.314,-4.3161,-4.3136,-4.316,-4.3094,-4.3095,-4.313,-4.3106,-4.3178,-4.3095,-4.313,-4.3132,-4.3137,-4.3329,-4.3371,-4.3507,-4.3261,-4.3264,-4.3266,0,-4.3246,-4.3251,-4.3334,-4.331,-4.332,-4.3355,-4.3362,-4.3381,-4.3373,-4.3353,-4.3358,-4.331,-4.3353,-4.3277,-4.3338,-4.3282,-4.3294,-4.3285,-4.3289,-4.3291,-4.3208,-4.3339,-4.3549,-4.3571,-4.3293,-4.3291,-4.3289,0,-4.3397,-4.3424,-4.3478,-4.3478,-4.345,-4.3477,-4.3468,-4.3454,-4.3465,-4.3471,-4.3477,-4.3489,-4.3496,-4.3507,-4.3465,-4.3413,-4.3533,-4.3452,-4.352,-4.3522,-4.3549,-4.3549,-4.3767,-4.3554,-4.3554,-4.3553,-4.3553,0,-4.3555,-4.361,-4.3546,-4.3579,-4.3639,-4.3583,-4.3644,-4.3626,-4.3616,-4.3646,-4.3582,-4.3612,-4.3554,-4.3579,-4.3546,-4.3603,-4.3606,-4.3593,-4.3584,-4.36,-4.3602,-4.3608,-4.3598,-4.3559,-4.3558,-4.3557,-4.3556,0,-4.3734,-4.3693,-4.3747,-4.3717,-4.3711,-4.3756,-4.3731,-4.3762,-4.3735,-4.3775,-4.3781,-4.374,-4.3766,-4.3724,-4.3746,-4.3724,-4.3804,-4.3779,-4.3807,-4.38,-4.3871,-4.3866,-4.4102,-4.4132,-4.3899,-4.3901,-4.3903,0,-4.3838,-4.3878,-4.3853,-4.3869,-4.3862,-4.3888,-4.3898,-4.3845,-4.3859,-4.3853,-4.3886,-4.3906,-4.392,-4.3966,-4.3939,-4.3956,-4.3933,-4.4015,-4.3935,-4.3951,-4.3937,-4.3936,-4.3942,-4.4032,-4.4035,-4.4037,-4.4039,0,-4.4029,-4.4007,-4.4024,-4.4035,-4.4049,-4.4055,-4.4056,-4.4073,-4.4018,-4.4037,-4.4063,-4.4074,-4.4096,-4.4119,-4.4129,-4.4121,-4.4073,-4.4064,-4.4081,-4.4098,-4.4114,-4.4109,-4.3853,-4.4059,-4.4057,-4.4055,-4.4054,-4.4053,-4.4175,-4.4208,-4.4197,-4.4218,-4.4214,-4.4217,-4.4246,-4.4223,-4.4243,-4.4257,-4.4225,-4.426,-4.4252,-4.4261,-4.4259,-4.4286,-4.4251,-4.4275,-4.4281,-4.4288,-4.4301,-4.4108,-4.4288,-4.4287,-4.4286,-4.4286,-4.4285,0,-4.4365,-4.4354,-4.4374,-4.4379,-4.4397,-4.4348,-4.4348,-4.4366,-4.4397,-4.4394,-4.4409,-4.4441,-4.4463,-4.4439,-4.4457,-4.4484,-4.4462,-4.4491,-4.4489,-4.4489,-4.433,-4.4315,-4.4508,-4.4508,-4.4508,-4.4508,-4.4508,-4.4508,-4.4466,-4.452,-4.4498,-4.4551,-4.4539,-4.4572,-4.4577,-4.4581,-4.4578,-4.4616,-4.4634,-4.4618,-4.4607,-4.4624,-4.4644,-4.4636,-4.4647,-4.4684,-4.4669,-4.4521,-4.45,-4.4479,-4.4464,-4.4686,-4.4686,-4.4825,-4.4827,-4.4828]},{"header":{"parameterUnit":"m.s-1","parameterCategory":1,"la1":30.2991,"la2":30.254,"lo1":-89.0895,"lo2":-89.0444,"dy":0.0017,"dx":0.0017,"nx":28,"ny":28,"refTime":"2024-10-04T03:00:00:Z","depth":0,"parameterNumber":3,"parameterNumberName":"V-component_of_WINDS"},"data":[0,0,0,0,0,0,0,0,0,0,0,0,0,0,0,0,0,0,0,0,0,0,0,0,0,0,0,0,0,0,0,0,0,0,0,0,0,0,0,0,0,0,0,0,0,0,0,0,0,0,0,0,0,0,0,0,0,0,-1.0809,-1.0809,0,-1.0787,-1.0787,-1.0786,-1.0758,-1.0757,-1.0757,-1.0756,-1.0733,-1.0733,-1.0733,0,0,0,0,0,0,0,0,0,0,0,0,0,-1.0826,-1.0826,-1.0809,-1.0809,-1.0808,-1.0787,-1.0787,-1.0786,-1.0758,-1.0757,-1.0757,-1.0756,-1.0733,-1.0733,-1.0733,0,0,0,0,0,0,0,0,0,0,0,0,0,-1.0813,-1.0826,-1.0809,-1.0792,-1.079,-1.0787,-1.0787,-1.0786,-1.0758,-1.0757,-1.0756,-1.0756,-1.0734,-1.0733,-1.0733,-1.0745,0,0,-1.0732,-1.0732,0,0,0,0,0,0,0,0,-1.0814,-1.0812,-1.0794,-1.0793,-1.0791,-1.0774,-1.0784,-1.0773,-1.0758,-1.077,-1.0756,-1.0755,-1.0748,-1.0746,-1.0743,-1.0744,-1.0743,-1.0732,-1.0732,-1.0732,-1.0732,0,0,0,0,0,0,0,-1.0815,-1.0813,-1.08,-1.0794,-1.0792,-1.0785,-1.0782,-1.0782,-1.0763,-1.0769,-1.0767,-1.0765,-1.0746,-1.0744,-1.0743,-1.0743,-1.0732,-1.0732,-1.0732,-1.0732,-1.0754,-1.0754,0,0,0,0,0,0,-1.0818,-1.0814,-1.0801,-1.08,-1.0801,-1.0785,-1.0782,-1.078,-1.0763,-1.076,-1.0765,-1.0763,-1.0745,-1.0743,-1.0742,-1.0756,-1.0732,-1.0732,-1.0732,-1.0753,-1.0754,-1.0755,0,0,0,0,0,0,-1.0819,-1.0817,-1.0802,-1.0806,-1.0804,-1.0785,-1.0784,-1.078,-1.0778,-1.076,-1.0757,-1.0766,-1.0744,-1.0742,-1.0745,-1.0755,-1.0732,-1.0731,-1.0752,-1.0753,-1.0754,-1.0785,0,0,0,0,0,0,-1.0819,-1.0818,-1.0822,-1.0807,-1.0804,-1.0806,-1.0784,-1.078,-1.0777,-1.0775,-1.076,-1.0757,-1.0743,-1.0746,-1.0745,-1.0754,-1.0731,-1.0751,-1.0753,-1.0754,-1.0783,-1.0787,-1.079,0,0,0,0,0,-1.082,-1.0831,-1.0823,-1.0821,-1.0809,-1.0806,-1.0804,-1.0789,-1.0778,-1.0783,-1.0771,-1.0757,-1.0754,-1.0746,-1.0745,-1.0754,-1.0751,-1.0752,-1.0754,-1.0781,-1.0786,-1.079,0,0,0,0,0,0,-1.0849,-1.0829,-1.0819,-1.0826,-1.0818,-1.0801,-1.0807,-1.0794,-1.0789,-1.0787,-1.0767,-1.0764,-1.077,-1.0762,-1.0754,-1.0766,-1.075,-1.0752,-1.0771,-1.0775,-1.0779,-1.0781,-1.0731,0,0,0,0,0,-1.0856,-1.0855,-1.0838,-1.0846,-1.0842,-1.0825,-1.0823,-1.0812,-1.0803,-1.0799,-1.0788,-1.078,-1.0777,-1.0775,-1.0772,-1.0781,-1.0778,-1.0787,-1.079,-1.0793,-1.0796,-1.0801,-1.0805,-1.076,-1.076,-1.076,0,0,-1.0871,-1.086,-1.0861,-1.0851,-1.0844,-1.0844,-1.0823,-1.0823,-1.0823,-1.0799,-1.0802,-1.0793,-1.0783,-1.0789,-1.0791,-1.0783,-1.0807,-1.0796,-1.0798,-1.0799,-1.0803,-1.0807,-1.0811,-1.0761,-1.0761,-1.0761,0,0,-1.0898,-1.0889,-1.0895,-1.0888,-1.0877,-1.0866,-1.0867,-1.0852,-1.0846,-1.0848,-1.083,-1.0829,-1.0824,-1.0818,-1.0814,-1.0839,-1.0826,-1.0838,-1.0858,-1.0863,-1.0867,-1.087,-1.088,-1.0883,-1.084,-1.084,-1.084,0,-1.0918,-1.0918,-1.09,-1.0902,-1.0899,-1.0877,-1.0883,-1.0876,-1.0865,-1.0863,-1.0854,-1.0847,-1.0839,-1.0844,-1.085,-1.0847,-1.0848,-1.084,-1.0867,-1.087,-1.0873,-1.0882,-1.0886,-1.0841,-1.0841,-1.0841,-1.0841,0,-1.0943,-1.0943,-1.0949,-1.0939,-1.0936,-1.094,-1.0923,-1.0922,-1.091,-1.09,-1.0902,-1.0891,-1.0885,-1.0885,-1.0873,-1.0888,-1.0884,-1.0871,-1.0855,-1.0879,-1.0888,-1.0891,-1.0844,-1.0843,-1.0843,-1.0842,0,0,-1.0989,-1.0969,-1.0971,-1.0967,-1.0953,-1.0952,-1.0955,-1.0949,-1.095,-1.0942,-1.0944,-1.0941,-1.0929,-1.0925,-1.0912,-1.0917,-1.0938,-1.0903,-1.0903,-1.0912,-1.0955,-1.0966,-1.0971,-1.0929,-1.0929,-1.093,-1.0957,0,-1.1015,-1.102,-1.1004,-1.1012,-1.1012,-1.0991,-1.0994,-1.0986,-1.0976,-1.0974,-1.0963,-1.0961,-1.0946,-1.0943,-1.0946,-1.0935,-1.0947,-1.0933,-1.0932,-1.0932,-1.0937,-1.0975,-1.0986,-1.1012,-1.096,-1.096,-1.0961,0,-1.1046,-1.1041,-1.105,-1.1036,-1.1035,-1.1038,-1.1031,-1.103,-1.102,-1.1013,-1.1008,-1.0993,-1.0995,-1.0979,-1.0982,-1.0973,-1.0971,-1.0965,-1.0966,-1.0967,-1.0949,-1.0978,-1.1019,-1.1024,-1.0965,-1.0965,-1.0965,0,-1.1081,-1.1075,-1.108,-1.1077,-1.106,-1.1063,-1.1056,-1.1045,-1.1043,-1.1037,-1.1035,-1.103,-1.1027,-1.1023,-1.1008,-1.0997,-1.1013,-1.0995,-1.1007,-1.1008,-1.1013,-1.1013,-1.1057,-1.1009,-1.1009,-1.1009,-1.1009,0,-1.1113,-1.1119,-1.1096,-1.1099,-1.1106,-1.1087,-1.1094,-1.1085,-1.1076,-1.1077,-1.1057,-1.1059,-1.1038,-1.1037,-1.1025,-1.103,-1.1028,-1.1023,-1.102,-1.1025,-1.1026,-1.1025,-1.1024,-1.101,-1.101,-1.101,-1.101,0,-1.1153,-1.1138,-1.1142,-1.1125,-1.1121,-1.1127,-1.1114,-1.1116,-1.1104,-1.1106,-1.1105,-1.1088,-1.1086,-1.1069,-1.1064,-1.1055,-1.1066,-1.1058,-1.1069,-1.1068,-1.1082,-1.1081,-1.1127,-1.1133,-1.1081,-1.1081,-1.1082,0,-1.1175,-1.118,-1.1164,-1.1164,-1.1158,-1.1157,-1.1155,-1.1136,-1.1134,-1.1123,-1.1127,-1.1124,-1.112,-1.1118,-1.1105,-1.11,-1.1093,-1.111,-1.1093,-1.1099,-1.1096,-1.1096,-1.1097,-1.1114,-1.1115,-1.1115,-1.1116,0,-1.1217,-1.1209,-1.1206,-1.1201,-1.1199,-1.1193,-1.1187,-1.1188,-1.1167,-1.1166,-1.1164,-1.1161,-1.1155,-1.1152,-1.1146,-1.1138,-1.1124,-1.1121,-1.1124,-1.1131,-1.1138,-1.1136,-1.1081,-1.112,-1.112,-1.112,-1.1119,-1.1119,-1.125,-1.1253,-1.1243,-1.1241,-1.1234,-1.1229,-1.123,-1.1219,-1.1217,-1.1211,-1.12,-1.12,-1.119,-1.1179,-1.1173,-1.1173,-1.1164,-1.1168,-1.1169,-1.1171,-1.1175,-1.1136,-1.1171,-1.1171,-1.1171,-1.1171,-1.1171,0,-1.1291,-1.1284,-1.1282,-1.1274,-1.1272,-1.1258,-1.125,-1.125,-1.125,-1.1242,-1.1239,-1.1237,-1.1234,-1.122,-1.1215,-1.1218,-1.1211,-1.1217,-1.1218,-1.1217,-1.1182,-1.1181,-1.1223,-1.1223,-1.1223,-1.1223,-1.1223,-1.1223,-1.1313,-1.1319,-1.131,-1.1312,-1.1303,-1.1303,-1.13,-1.1295,-1.1289,-1.1288,-1.1285,-1.1276,-1.1266,-1.126,-1.1257,-1.1253,-1.1253,-1.1262,-1.1256,-1.1224,-1.1219,-1.1214,-1.1213,-1.1261,-1.1262,-1.1291,-1.1291,-1.1291]}]]